Hourly Data Report for September 07, 2016

All times are specified in Local Standard Time (LST). Add 1 hour to adjust for Daylight Saving Time where and when it is observed.

CHARLOTTETOWN A
PRINCE EDWARD ISLAND

46°17'21.000" N
63°07'09.000" W
48.50 m
8300301
71706
YYG

Download Data

Hourly Data (September 2016)
Hourly Data Report for September 7, 2016
Temp Definition
°C
Dew Point Temp Definition
°C
Rel Hum Definition
%
Wind Dir Definition
10's deg

Wind Spd Definition
km/h
Visibility Definition
km
Stn Press Definition
kPa
Hmdx Definition


Wind Chill Definition


Weather Definition


TIME
00:00 Legend Double Dagger 23.0 21.3 90 22 12 24.1 101.39 32   LegendNANA
01:00 Legend Double Dagger 22.7 21.4 92 22 15 24.1 101.40 31   LegendNANA
02:00 Legend Double Dagger 22.4 21.2 93 24 21 19.3 101.37 31   Cloudy
03:00 Legend Double Dagger 22.0 20.8 93 24 19 19.3 101.36 30   LegendNANA
04:00 Legend Double Dagger 21.6 20.6 94 23 13 19.3 101.35 30   LegendNANA
05:00 Legend Double Dagger 21.4 20.2 93 23 13 24.1 101.39 29   Mostly Cloudy
06:00 Legend Double Dagger 21.0 20.0 94 21 12 24.1 101.43 29   LegendNANA
07:00 Legend Double Dagger 20.9 19.6 92 22 15 24.1 101.44 28   LegendNANA
08:00 Legend Double Dagger 22.0 19.2 84 22 18 24.1 101.45 29   Mostly Cloudy
09:00 Legend Double Dagger 23.4 19.0 76 24 16 24.1 101.45 30   LegendNANA
10:00 Legend Double Dagger 24.3 19.7 75 23 16 24.1 101.42 32   LegendNANA
11:00 Legend Double Dagger 24.9 19.8 73 22 20 24.1 101.38 32   Mostly Cloudy
12:00 Legend Double Dagger 25.9 20.3 71 21 26 24.1 101.30 34   LegendNANA
13:00 Legend Double Dagger 26.4 20.8 71 20 26 24.1 101.22 35   LegendNANA
14:00 Legend Double Dagger 26.8 19.1 62 22 34 24.1 101.11 34   Mainly Clear
15:00 Legend Double Dagger 27.1 15.7 49 22 39 24.1 101.11 32   LegendNANA
16:00 Legend Double Dagger 26.9 15.8 50 22 35 24.1 101.04 31   LegendNANA
17:00 Legend Double Dagger 26.2 16.9 56 24 21 24.1 101.18 31   Mostly Cloudy
18:00 Legend Double Dagger 24.3 16.2 60 24 30 24.1 101.09 29   LegendNANA
19:00 Legend Double Dagger 23.4 15.3 60 23 22 24.1 101.05 28   LegendNANA
20:00 Legend Double Dagger 22.1 16.5 70 23 22 24.1 101.09 27   Mainly Clear
21:00 Legend Double Dagger 21.3 16.6 74 25 14 24.1 101.07 26   LegendNANA
22:00 Legend Double Dagger 21.1 16.6 75 25 16 24.1 101.05 26   LegendNANA
23:00 Legend Double Dagger 20.8 17.3 80 25 18 24.1 101.05 26   Mainly Clear

Notes on Data Quality.

Legend

  • E = Estimated
  • M = Missing
  • NA = Not Available
  • ‡ = Partner data that is not subject to review by the National Climate Archives
Date modified: